Simultaneous Nadir Overpasses (SNOs) Predictions

Prediction of SNOs between METOP-B and TERRA Satellite Orbit:

Table of predicted SNOs for the next 14.0 days since TLE Epoch: 9/8/2018
Index Date (METOP-B) Time (METOP-B) Lat,Lon (METOP-B) SZA (METOP-B ) Date (TERRA) Time (TERRA) Lat,Lon (TERRA) SZA (TERRA ) Distance(km) Time Diff (sec)
1 09/08/2018 12:46:36 -81.36,-143.30 101.25 09/08/2018 12:46:41 -81.36,-143.32 101.25 0.46 5
2 09/08/2018 13:37:15 81.37, 24.59 78.84 09/08/2018 13:36:07 81.37, 24.47 78.79 2.02 68
3 09/11/2018 07:30:16 81.36, 115.01 79.74 09/11/2018 07:31:30 81.33, 114.87 79.74 3.49 74
4 09/11/2018 08:20:55 -81.36, -76.79 100.15 09/11/2018 08:20:55 -81.37, -76.84 100.15 0.85 0
5 09/11/2018 09:11:34 81.37, 91.06 79.93 09/11/2018 09:10:21 81.37, 90.94 79.88 2.14 73
6 09/14/2018 03:04:34 81.36,-178.13 80.89 09/14/2018 03:05:43 81.35,-178.31 80.89 3.14 69
7 09/14/2018 03:55:14 -81.37, -10.30 99.04 09/14/2018 03:55:09 -81.37, -10.38 99.06 1.48 5
8 09/16/2018 22:38:52 81.36,-111.69 81.99 09/16/2018 22:39:55 81.37,-111.53 82.05 2.82 63
9 09/16/2018 23:29:32 -81.37, 56.18 97.93 09/16/2018 23:29:22 -81.37, 56.04 97.95 2.39 10
10 09/19/2018 18:13:11 81.36, -45.26 83.11 09/19/2018 18:14:09 81.37, -45.17 83.15 1.60 58




NCC Satellite Simultaneous Nadir Overpasses (SNOs) Prediction Service
